DateTimeUTC,F1_A11,F1_S11,BsB_S11,BsG_S11,BsR_S11,BbsB_S11,BbsG_S11,BbsR_S11,BaB_A11,BaG_A11,BaR_A11,Tu_S11,T_S11,Uu_S11,U_S11,P_S11,T1_A11
2021-04-02T11:00:00Z,00000200,20000000,,,,,,,-000.14,-000.29,-000.30,16.6,23.6,02.6,01.7,0651.3,30.9
2021-04-02T11:01:00Z,00000200,20000000,,,,,,,-000.07,-000.13,0000.07,16.6,23.6,02.4,01.6,0651.3,30.9
2021-04-02T11:02:00Z,00000200,20000000,,,,,,,0000.21,0000.50,0000.43,16.6,23.6,02.3,01.5,0651.3,30.9
2021-04-02T11:03:00Z,00000200,60000000,,,,,,,0000.04,-000.01,-000.21,16.6,23.6,02.3,01.5,0651.3,30.9
2021-04-02T11:04:00Z,00000200,40000000,-000.43,-000.19,-000.11,-000.10,-000.13,0000.22,-000.08,-000.01,-000.19,16.7,23.4,02.5,01.6,0651.9,30.9
2021-04-02T11:05:00Z,00000200,00000000,-000.15,0000.11,0000.05,-000.55,0000.01,0000.27,0000.08,-000.06,0000.39,16.7,23.3,02.5,01.6,0652.0,30.9
2021-04-02T11:06:00Z,00000200,00000000,0000.08,0000.16,-000.25,0000.24,0000.19,0000.01,0000.03,0000.00,-000.02,16.7,23.3,02.4,01.6,0651.9,30.9
2021-04-02T11:07:00Z,00000200,00000000,-000.61,0000.11,-000.07,0000.50,-000.02,0000.06,0000.38,0000.20,0000.03,16.7,23.3,02.5,01.7,0651.9,30.9
2021-04-02T11:08:00Z,00000200,00000000,0000.36,0000.01,0000.10,0000.53,0000.16,0000.16,0000.11,0000.63,0000.34,16.7,23.3,02.6,01.7,0651.8,30.9
2021-04-02T11:09:00Z,00000200,000D0000,-008.92,-004.91,-003.39,-006.13,-003.71,-003.39,0000.15,-000.22,0000.26,16.6,23.3,02.6,01.7,0651.9,30.9
2021-04-02T11:10:00Z,00000200,00080000,-000.01,-000.00,-000.10,-000.11,0000.00,-000.10,0000.18,0000.05,-000.44,16.7,23.3,02.5,01.7,0651.8,30.9
2021-04-02T11:11:00Z,00000200,00000000,-000.41,0000.05,0000.19,-000.46,0000.13,-000.07,-000.17,0000.25,0000.53,16.7,23.3,02.4,01.6,0651.7,30.9
2021-04-02T11:12:00Z,00000200,00000000,-000.10,0000.11,0000.27,-000.04,0000.00,0000.13,-001.02,-000.85,-000.86,16.8,23.3,02.4,01.6,0651.8,30.9
2021-04-02T11:13:00Z,00000200,00000000,0000.24,-000.06,-000.01,0000.30,-000.12,0000.14,0001.37,0000.83,0001.09,16.8,23.3,02.3,01.5,0651.6,30.9
2021-04-02T11:14:00Z,00000200,00080000,-000.24,0000.20,-001.46,-000.35,-000.22,-000.94,0000.88,0001.39,0000.51,16.8,23.3,02.9,01.9,0651.5,30.9
2021-04-02T11:15:00Z,00000200,00000000,0000.34,0000.32,0000.19,-000.25,0000.08,0000.18,-002.28,-002.11,-001.33,16.8,23.3,02.8,01.8,0651.5,30.9
2021-04-02T11:16:00Z,00000200,00000000,-000.52,0000.31,-000.02,0000.16,0000.12,0000.06,-000.56,-000.67,-000.62,16.8,23.3,02.1,01.4,0651.5,30.9
2021-04-02T11:17:00Z,00000200,00000000,0000.15,0000.08,0000.05,0000.11,0000.08,0000.08,0001.30,0001.12,0001.07,16.7,23.3,02.1,01.4,0651.5,30.9
2021-04-02T11:18:00Z,00000200,00000000,0001.09,0000.12,0000.01,0000.66,0000.02,0000.03,-000.20,-000.40,-000.42,16.7,23.3,02.4,01.6,0651.6,30.9
2021-04-02T11:19:00Z,00000200,01000000,0000.49,0000.03,0000.12,0000.08,0000.14,0000.27,-000.93,-000.87,-000.73,16.7,23.3,02.1,01.4,0651.8,30.9
2021-04-02T11:20:00Z,00000200,01000000,-000.41,0000.06,0000.28,-000.26,0000.08,0000.12,-000.15,-000.33,-000.17,16.7,23.2,01.9,01.3,0651.6,30.9
2021-04-02T11:21:00Z,00000200,01000000,0000.42,0000.10,0000.05,0000.29,-000.01,0000.18,-000.04,0000.58,0000.43,16.7,23.2,01.9,01.2,0651.6,30.9
2021-04-02T11:22:00Z,00000200,01000000,0000.15,0000.06,-000.04,0000.24,0000.02,-000.06,0000.43,0000.05,-000.30,16.7,23.2,02.0,01.3,0651.7,30.9
2021-04-02T11:23:00Z,00000200,00000000,0000.01,0000.33,-000.03,-000.24,0000.17,-000.04,-000.36,-000.37,0000.12,16.6,23.2,01.9,01.3,0651.8,30.9
2021-04-02T11:24:00Z,00000200,01000000,0000.08,0000.17,-000.20,0000.20,0000.20,-000.16,0000.93,0001.24,0000.74,16.6,23.2,02.0,01.3,0651.7,30.9
2021-04-02T11:25:00Z,00000200,00000000,0000.26,0000.18,0000.20,0000.27,0000.10,0000.35,0000.59,0000.34,0000.47,16.6,23.2,02.1,01.4,0651.8,30.9
2021-04-02T11:26:00Z,00000200,00000000,0000.34,0000.25,0000.05,0000.38,0000.08,0000.00,0001.23,0000.79,0000.73,16.7,23.2,02.5,01.7,0651.7,30.9
2021-04-02T11:27:00Z,00000200,00000000,0000.10,-000.05,0000.11,-000.06,0000.27,-000.05,-000.53,-000.43,-000.39,16.8,23.2,02.5,01.7,0651.8,30.9
2021-04-02T11:28:00Z,00000200,00000000,-000.46,-000.12,-000.18,-000.34,-000.15,0000.17,0000.12,0000.30,0000.34,16.8,23.3,02.5,01.7,0651.8,30.9
2021-04-02T11:29:00Z,00000200,000C0000,-006.05,-003.52,-002.35,-004.31,-002.54,-002.22,0000.79,0000.65,0000.26,16.8,23.3,02.4,01.6,0651.8,30.9
2021-04-02T11:30:00Z,00000200,00000000,0000.46,0000.17,0000.42,0000.06,0000.11,0000.26,-000.08,0000.42,0000.26,16.8,23.3,02.6,01.7,0651.8,30.9
2021-04-02T11:31:00Z,00000200,00000000,-000.18,0000.30,0000.33,-000.09,0000.04,0000.22,0000.43,-000.48,-000.26,16.8,23.3,02.7,01.8,0652.0,30.9
2021-04-02T11:32:00Z,00000200,00000000,0000.98,0000.21,0000.44,0000.12,-000.03,0000.24,-000.32,0000.74,-000.06,16.8,23.3,02.7,01.8,0651.6,30.9
2021-04-02T11:33:00Z,00000200,00000000,0000.38,0000.26,0000.11,0000.32,-000.19,0000.39,0000.52,0000.32,0000.59,16.8,23.2,02.7,01.8,0651.6,30.9
2021-04-02T11:34:00Z,00000200,00000000,0000.95,0000.41,0000.11,-000.08,0000.17,0000.36,0000.64,-000.05,0000.43,16.8,23.3,02.6,01.8,0651.6,30.9
2021-04-02T11:35:00Z,00000200,00000000,0000.75,0000.32,0000.06,0000.45,0000.30,0000.06,0000.39,0000.60,0000.25,16.7,23.2,02.8,01.9,0651.6,30.9
2021-04-02T11:36:00Z,00000200,00000000,0000.55,0000.54,0000.07,0000.15,0000.01,0000.26,0000.13,0000.17,0000.13,16.7,23.2,02.9,01.9,0651.8,30.9
2021-04-02T11:37:00Z,00000200,00000000,0000.77,0000.33,0000.46,0000.21,0000.27,0000.24,0000.63,0000.29,0000.36,16.7,23.2,03.0,02.0,0651.7,30.9
2021-04-02T11:38:00Z,00000200,00000000,0000.31,0000.33,0000.06,0000.61,0000.03,0000.04,-000.28,-000.16,-000.13,16.7,23.2,02.9,01.9,0651.7,30.9
2021-04-02T11:39:00Z,00000200,00000000,0000.81,0000.28,0000.38,-000.07,0000.20,0000.04,0000.05,-000.17,0000.21,16.7,23.2,02.8,01.9,0651.9,30.9
2021-04-02T11:40:00Z,00000200,00000000,0000.23,0000.34,0000.16,0000.18,0000.37,0000.24,0000.93,0001.18,0000.66,16.7,23.2,02.7,01.8,0651.7,30.9
2021-04-02T11:41:00Z,00000200,00000000,0000.34,0000.41,0000.27,0000.18,0000.03,0000.15,0000.62,0000.66,0000.27,16.7,23.2,03.0,02.0,0651.8,30.9
2021-04-02T11:42:00Z,00000200,000C0000,-002.00,-001.17,-001.19,-002.84,-001.38,-001.73,-000.10,-000.14,0000.10,16.6,23.2,03.1,02.1,0651.7,30.9
2021-04-02T11:43:00Z,00000200,00000000,0000.64,0000.21,0000.32,0000.55,-000.06,0000.33,-000.00,0000.04,0000.02,16.7,23.2,02.9,01.9,0651.7,30.9
2021-04-02T11:44:00Z,00000200,00000000,0000.16,0000.07,0000.11,0000.25,-000.01,0000.04,-001.03,-000.90,-000.38,16.7,23.2,02.6,01.7,0651.6,30.9
2021-04-02T11:45:00Z,00000200,00000000,0000.61,0000.45,-000.13,-000.39,0000.32,0000.25,0000.56,0000.64,0000.23,16.6,23.2,02.4,01.6,0651.7,30.9
2021-04-02T11:46:00Z,00000200,00000000,0000.21,0000.19,-000.10,0000.25,0000.24,0000.15,0000.04,-000.41,0000.08,16.6,23.2,02.6,01.7,0651.7,30.9
2021-04-02T11:47:00Z,00000200,00000000,0000.35,0000.26,0000.22,-000.13,-000.05,0000.17,-000.87,-000.28,-000.65,16.6,23.2,02.4,01.6,0651.7,30.9
2021-04-02T11:48:00Z,00000200,00000000,0000.39,0000.29,0000.02,-000.03,0000.39,0000.32,0000.74,0000.72,0000.81,16.6,23.2,02.4,01.6,0651.7,30.9
2021-04-02T11:49:00Z,00000200,00000000,0000.36,0000.19,0000.47,0000.20,0000.32,0000.08,0001.31,0000.60,0000.41,16.6,23.1,02.4,01.6,0651.7,30.9
2021-04-02T11:50:00Z,00000200,00000000,0000.01,0000.27,0000.20,-000.05,-000.09,0000.28,-001.37,-000.88,-000.87,16.6,23.1,02.6,01.7,0651.6,30.9
2021-04-02T11:51:00Z,00000200,00000000,0000.35,0000.30,0000.28,0000.03,0000.04,0000.12,-000.14,-000.31,-000.17,16.6,23.1,02.2,01.5,0651.6,30.9
2021-04-02T11:52:00Z,00000200,00000000,0000.37,0000.09,0000.51,0000.19,-000.07,0000.27,0000.32,-000.20,-000.01,16.6,23.1,02.1,01.4,0651.6,30.9
2021-04-02T11:53:00Z,00000200,00000000,0000.31,0000.21,0000.06,0000.09,0000.04,-000.14,-000.18,0000.11,0000.24,16.6,23.1,02.1,01.4,0651.6,30.9
2021-04-02T11:54:00Z,00000200,00000000,0000.69,0000.27,0000.05,-000.04,0000.29,0000.11,0000.47,0000.84,0000.39,16.6,23.1,02.1,01.4,0651.7,30.9
2021-04-02T11:55:00Z,00000200,00000000,0000.12,0000.28,0000.09,0000.04,0000.07,0000.25,-000.20,-000.42,-000.05,16.6,23.1,02.2,01.4,0651.7,30.9
2021-04-02T11:56:00Z,00000200,00000000,0000.93,0000.26,0000.11,0000.10,0000.16,0000.24,-000.25,0000.07,-000.06,16.7,23.1,02.0,01.3,0651.7,30.9
2021-04-02T11:57:00Z,00000200,40000000,,,,,,,0000.88,0000.61,0000.42,16.7,23.2,01.9,01.3,0651.4,30.9
2021-04-02T11:58:00Z,00000200,60000000,,,,,,,-000.64,-000.52,-000.13,16.5,23.3,02.1,01.3,0650.6,30.9
2021-04-02T11:59:00Z,00000200,20000000,,,,,,,-000.04,0000.04,-000.45,16.5,23.4,02.0,01.3,0650.5,30.9
